This demonstration page uses our WeatherBlox Daily Observations layout. Learn more.

Left ArrowRight Arrow

Hourly Observations for April 20, 2022

Temp ( °F °C ) Dew Point ( °F °C ) Humidity (%) Winds ( mph kmh ) Pressure ( in mb ) Visibility ( mi km ) Precip ( " mm )
12:52 am 00:52 Partly Cloudy 52 11.1 32 0 47 47 SSE 21 33 29.97 1015 10 16 0.00 0.00
1:52 am 01:52 Cloudy 52 11.1 32 0 47 47 SSE 21 33 29.96 1015 10 16 0.00 0.00
2:52 am 02:52 Cloudy with Light Rain 51 10.6 32 0 48 48 SSE 22 35 29.93 1014 10 16 0.00 0.00
3:52 am 03:52 Cloudy 50 10 36 2.2 59 59 SSE 18 30 29.93 1013 10 16 0.00 0.00
4:52 am 04:52 Cloudy 50 10 36 2.2 59 59 SSE 20 31 29.93 1013 10 16 0.00 0.00
5:52 am 05:52 Cloudy 49 9.4 38 3.3 66 66 SSE 20 31 29.91 1013 10 16 0.00 0.00
6:04 am 06:04 Cloudy 49 9.4 38 3.3 66 66 SSE 20 31 29.92 1013 10 16 0.00 0.00
6:52 am 06:52 Cloudy 49 9.4 38 3.3 66 66 SSE 21 33 29.89 1012 10 16 0.00 0.00
7:31 am 07:31 Cloudy 50 10 40 4.4 68 68 SSE 20 31 29.90 1013 10 16 0.00 0.00
7:52 am 07:52 Cloudy 50 10 41 5 71 71 SSE 17 28 29.88 1012 10 16 0.00 0.00
8:52 am 08:52 Cloudy with Nearby Thunderstorms 51 10.6 45 7.2 80 80 SSE 23 37 29.85 1011 10 16 0.00 0.00
9:08 am 09:08 Cloudy with Strong Thunderstorms 50 10 46 7.8 86 86 SSE 24 39 29.86 1011 3 4 0.00 0.00
9:18 am 09:18 Cloudy with Nearby Thunderstorms 50 10 47 8.3 89 89 SSE 21 33 29.86 1011 5 8 0.06 1.52
9:52 am 09:52 Cloudy with Nearby Thunderstorms 51 10.6 48 8.9 89 89 SSE 21 33 29.84 1011 3 5 0.09 2.29
10:26 am 10:26 Cloudy with Light Rain 51 10.6 49 9.4 92 92 SSE 23 37 29.85 1011 8 13 0.09 2.29
10:33 am 10:33 Cloudy with Light Rain 51 10.6 49 9.4 92 92 SSE 22 35 29.85 1011 10 16 0.09 2.29
10:47 am 10:47 Cloudy with Light Rain 52 11 50 10 94 94 SSE 28 44 29.84 1010 7 11 0.10 2.54
10:52 am 10:52 Cloudy with Light Rain 52 11.1 50 10 93 93 SSE 25 41 29.83 1010 9 14 0.10 2.54
11:52 am 11:52 Cloudy 51 10.6 49 9.4 92 92 SSE 26 43 29.83 1010 8 13 0.00 0.00
12:15 pm 12:15 Cloudy with Light Rain 51 10.6 49 9.4 92 92 SSE 24 39 29.84 1010 5 8 0.00 0.00
12:52 pm 12:52 Cloudy with Light Rain 51 10.6 49 9.4 92 92 SSE 28 44 29.83 1010 4 6 0.00 0.00
1:52 pm 13:52 Cloudy with Light Rain 51 10.6 50 10 96 96 SSE 21 33 29.80 1009 4 6 0.00 0.00
2:52 pm 14:52 Cloudy with Mist and Fog 51 10.6 50 10 96 96 SSE 21 33 29.80 1009 5 8 0.00 0.00
3:52 pm 15:52 Cloudy 52 11.1 50 10 93 93 S 20 31 29.80 1009 10 16 0.00 0.00
4:52 pm 16:52 Cloudy 53 11.7 50 10 89 89 SSE 17 28 29.79 1009 10 16 0.00 0.00
5:52 pm 17:52 Cloudy 53 11.7 51 10.6 93 93 SSE 23 37 29.78 1009 10 16 0.00 0.00
6:52 pm 18:52 Cloudy 53 11.7 52 11.1 96 96 SSE 20 31 29.79 1009 9 14 0.00 0.00
7:52 pm 19:52 Cloudy 54 12.2 52 11.1 93 93 SSE 17 28 29.80 1009 8 13 0.00 0.00
8:52 pm 20:52 Cloudy 54 12.2 53 11.7 97 97 SSE 10 17 29.85 1011 10 16 0.00 0.00
9:52 pm 21:52 Cloudy 55 12.8 54 12.2 96 96 SSE 12 19 29.89 1012 10 16 0.00 0.00
10:52 pm 22:52 Cloudy 55 12.8 54 12.2 96 96 SSW 5 7 29.93 1014 10 16 0.00 0.00
11:50 pm 23:50 Mostly Cloudy 55 13 54 12 94 94 SSE 10 17 29.93 1013 9 14 0.00 0.00
11:51 pm 23:51 Mostly Cloudy 55 12.8 54 12.2 96 96 SSE 10 17 29.92 1013 9 14 0.00 0.00

Powered by AerisWeather